カタログに戻る

COSMOS 1275 DEB

運用中PO
NORAD 12752·DEBRIS·🇷🇺 Russia

打ち上げ Jun 4, 1981 から Plesetsk Cosmodrome

Loading…

次のパス (今後24時間)

TLE

最新Source: Space-Track

元期: Sep 14, 2026, 15:03 UTC

1 12752U 81053CV  26257.62750760  .00000574  00000-0  62317-3 0  9997
2 12752  83.0212 322.4279 0124156 138.4135  14.7065 13.67940727233016

AllMySatでCOSMOS 1275 DEBをリアルタイム追跡

Download on the App Store